Location: Newark
(41.0400°S, 62.7845°W)
Time: 06:53:02
(UTC+00:00)

A-11 Canister half - Visible Passes

Search period start: 03 December 2021 00:00
Search period end: 13 December 2021 00:00
Orbit: 1524 x 1685 km, 47.3° (Epoch: 02 December)

Date Brightness Start Highest point End Pass type
(mag) Time Alt. Az. Time Alt. Az. Time Alt. Az.
03 Dec 9.6 00:52:40 10° WSW 01:01:41 46° NW 01:09:03 17° NNE visible
03 Dec 10.8 03:03:06 10° WNW 03:04:58 11° WNW 03:06:52 10° NW visible
04 Dec 9.6 00:30:58 10° WSW 00:40:03 49° NW 00:48:34 13° NNE visible
04 Dec 10.8 02:40:22 10° WNW 02:43:24 12° WNW 02:46:28 10° NW visible
05 Dec 9.6 00:09:16 10° WSW 00:18:24 51° NW 00:27:48 10° NNE visible
05 Dec 10.8 02:18:00 10° W 02:21:48 13° WNW 02:25:41 10° NW visible
05 Dec 9.6 23:47:35 10° WSW 23:56:46 53° NW 00:06:13 10° NNE visible
06 Dec 10.8 01:55:47 10° W 02:00:13 14° WNW 02:04:42 10° NNW visible
07 Dec 10.8 01:33:42 10° W 01:38:38 15° WNW 01:43:38 10° NNW visible
08 Dec 10.8 01:11:40 10° W 01:17:02 16° NW 01:22:30 10° NNW visible
09 Dec 10.8 00:49:42 10° W 00:55:27 18° NW 01:01:19 10° NNW visible
10 Dec 10.8 00:27:46 10° W 00:33:52 19° NW 00:40:04 10° NNW visible
11 Dec 10.8 00:05:52 10° W 00:12:16 20° NW 00:18:46 10° N visible
